GW5875 Weather Reports


Display with metric or nautical units.
time (UTC)temp
F
wind
direction
speed
MPH
gust
MPH
rain 1hr
in
rain 24hr
in
rain mn
in
humidity
%
barometer
mb
20260906153046 93 164 0.0 1.0 0.00 0.00 0.00 61 1012.7
20260906152545 93 171 2.0 3.0 0.00 0.00 0.00 59 1012.7
20260906152044 93 212 3.0 3.0 0.00 0.00 0.00 60 1012.7
20260906151540 92 181 2.0 3.0 0.00 0.00 0.00 62 1012.7
20260906151036 92 188 2.0 3.0 0.00 0.00 0.00 62 1012.7
20260906150531 91 199 2.0 3.0 0.00 0.00 0.00 64 1012.6
20260906150026 91 188 1.0 1.0 0.00 0.00 0.00 65 1012.7
20260906145524 90 162 0.0 1.0 0.00 0.00 0.00 67 1012.9
20260906145020 90 198 2.0 3.0 0.00 0.00 0.00 68 1012.9
20260906144515 89 165 1.0 1.0 0.00 0.00 0.00 69 1012.7
20260906144010 89 320 3.0 4.0 0.00 0.00 0.00 70 1012.7
20260906143505 89 310 3.0 4.0 0.00 0.00 0.00 71 1012.6
20260906143002 88 162 0.0 0.0 0.00 0.00 0.00 72 1012.7
20260906142500 87 177 1.0 1.0 0.00 0.00 0.00 74 1012.8
20260906141955 87 165 0.0 1.0 0.00 0.00 0.00 75 1012.8
20260906141454 88 200 2.0 3.0 0.00 0.00 0.00 73 1012.7
20260906140950 88 169 0.0 1.0 0.00 0.00 0.00 72 1012.8
20260906140444 87 156 0.0 0.0 0.00 0.00 0.00 76 1012.8
20260906135943 86 160 0.0 0.0 0.00 0.00 0.00 77 1013.0
20260906135441 85 191 1.0 1.0 0.00 0.00 0.00 78 1012.9
20260906134937 84 163 0.0 0.0 0.00 0.00 0.00 81 1012.9
20260906134432 83 160 0.0 0.0 0.00 0.00 0.00 82 1012.7
20260906133927 83 158 0.0 0.0 0.00 0.00 0.00 82 1012.7
20260906133423 82 158 0.0 0.0 0.00 0.00 0.00 83 1012.9
20260906132919 82 152 0.0 0.0 0.00 0.00 0.00 83 1012.6
20260906132414 81 152 0.0 0.0 0.00 0.00 0.00 85 1012.7
20260906131909 80 152 0.0 0.0 0.00 0.00 0.00 89 1012.7
20260906131404 79 152 0.0 0.0 0.00 0.00 0.00 90 1012.6
20260906130900 78 152 0.0 0.0 0.00 0.00 0.00 92 1012.8
20260906130359 78 152 0.0 0.0 0.00 0.00 0.00 94 1012.7
20260906125859 77 152 0.0 0.0 0.00 0.00 0.00 95 1012.8
20260906125356 77 151 0.0 0.0 0.00 0.00 0.00 97 1012.9
20260906124851 76 151 0.0 0.0 0.00 0.00 0.00 97 1012.7
20260906124347 75 152 0.0 0.0 0.00 0.00 0.00 98 1012.5
20260906123846 74 152 0.0 0.0 0.00 0.00 0.00 97 1012.6
20260906123341 74 152 0.0 0.0 0.00 0.00 0.00 97 1012.4
20260906122840 74 152 0.0 0.0 0.00 0.00 0.00 98 1012.5
20260906122335 73 151 0.0 0.0 0.00 0.00 0.00 98 1012.2
20260906121832 73 151 0.0 0.0 0.00 0.00 0.00 98 1012.2
20260906121328 73 151 0.0 0.0 0.00 0.00 0.00 98 1012.2
20260906120824 73 151 0.0 0.0 0.00 0.00 0.00 97 1012.2
20260906120320 73 151 0.0 0.0 0.00 0.00 0.00 97 1012.2
20260906115816 73 151 0.0 0.0 0.00 0.00 0.00 97 1012.1
20260906115311 73 151 0.0 0.0 0.00 0.00 0.00 98 1011.9
20260906114810 73 151 0.0 0.0 0.00 0.00 0.00 97 1011.8
20260906114306 73 151 0.0 0.0 0.00 0.00 0.00 97 1011.8
20260906113806 73 151 0.0 0.0 0.00 0.00 0.00 97 1011.9
20260906113305 73 151 0.0 0.0 0.00 0.00 0.00 97 1011.6
20260906112801 72 151 0.0 0.0 0.00 0.00 0.00 97 1011.7
20260906112256 72 151 0.0 0.0 0.00 0.00 0.00 97 1011.7
20260906111756 73 151 0.0 0.0 0.00 0.00 0.00 97 1011.5
20260906111255 73 151 0.0 0.0 0.00 0.00 0.00 97 1011.6
20260906110751 73 151 0.0 0.0 0.00 0.00 0.00 97 1011.6
20260906110247 73 151 0.0 0.0 0.00 0.00 0.00 97 1011.7
20260906105745 73 151 0.0 0.0 0.00 0.00 0.00 97 1011.6
20260906105241 73 151 0.0 0.0 0.00 0.00 0.00 97 1011.7
20260906104736 73 151 0.0 0.0 0.00 0.00 0.00 97 1011.6
20260906104235 73 151 0.0 0.0 0.00 0.00 0.00 97 1011.5
20260906103733 73 151 0.0 0.0 0.00 0.00 0.00 97 1011.4
20260906103228 73 151 0.0 0.0 0.00 0.00 0.00 97 1011.4
20260906102724 73 151 0.0 0.0 0.00 0.00 0.00 97 1011.4
20260906102222 73 151 0.0 0.0 0.00 0.00 0.00 97 1011.2
20260906101717 73 151 0.0 0.0 0.00 0.00 0.00 97 1011.2
20260906101212 74 151 0.0 0.0 0.00 0.00 0.00 97 1011.2
20260906100708 73 151 0.0 0.0 0.00 0.00 0.00 97 1011.5
20260906100209 73 151 0.0 0.0 0.00 0.00 0.00 97 1011.2
20260906095709 73 151 0.0 0.0 0.00 0.00 0.00 97 1011.3
20260906095204 74 151 0.0 0.0 0.00 0.00 0.00 97 1011.3
20260906094703 74 151 0.0 0.0 0.00 0.00 0.00 97 1011.4
20260906094158 74 151 0.0 0.0 0.00 0.00 0.00 97 1011.2
20260906093655 74 151 0.0 0.0 0.00 0.00 0.00 97 1011.1
20260906093149 74 151 0.0 0.0 0.00 0.00 0.00 97 1011.0
20260906092645 74 151 0.0 0.0 0.00 0.00 0.00 97 1010.9
20260906092144 74 151 0.0 0.0 0.00 0.00 0.00 97 1010.9
20260906091635 74 151 0.0 0.0 0.00 0.00 0.00 97 1010.9
20260906091132 74 151 0.0 0.0 0.00 0.00 0.00 96 1010.9
20260906090627 74 151 0.0 0.0 0.00 0.00 0.00 96 1011.0
20260906090126 74 151 0.0 0.0 0.00 0.00 0.00 96 1010.7
20260906085625 74 151 0.0 0.0 0.00 0.00 0.00 96 1010.6
20260906085120 74 151 0.0 0.0 0.00 0.00 0.00 96 1011.0
20260906084615 74 151 0.0 0.0 0.00 0.00 0.00 96 1010.6
20260906084114 74 151 0.0 0.0 0.00 0.00 0.00 96 1010.6
20260906083609 74 151 0.0 0.0 0.00 0.00 0.00 96 1010.7
20260906083109 74 151 0.0 0.0 0.00 0.00 0.00 96 1010.4
20260906082604 74 153 0.0 0.0 0.00 0.00 0.00 96 1010.6
20260906082100 74 153 0.0 0.0 0.00 0.00 0.00 96 1010.6
20260906081555 74 153 1.0 1.0 0.00 0.00 0.00 96 1010.8
20260906081050 75 149 0.0 0.0 0.00 0.00 0.00 96 1010.7
20260906080547 75 133 0.0 0.0 0.00 0.00 0.00 96 1010.4
20260906080043 75 132 0.0 0.0 0.00 0.00 0.00 96 1010.6
20260906075543 75 188 2.0 3.0 0.00 0.00 0.00 96 1010.4
20260906075037 75 134 0.0 0.0 0.00 0.00 0.00 96 1010.6
20260906074532 74 174 0.0 0.0 0.00 0.00 0.00 96 1010.7
20260906074031 74 175 0.0 0.0 0.00 0.00 0.00 96 1010.8
20260906073526 75 149 0.0 0.0 0.00 0.00 0.00 96 1010.8
20260906073017 75 148 0.0 0.0 0.00 0.00 0.00 96 1010.7
20260906072517 75 148 0.0 0.0 0.00 0.00 0.00 96 1010.8
20260906072013 75 148 0.0 0.0 0.00 0.00 0.00 96 1010.7
20260906071509 75 148 0.0 0.0 0.00 0.00 0.00 95 1010.7
20260906071004 75 148 0.0 0.0 0.00 0.00 0.00 95 1010.9
20260906070500 75 148 0.0 0.0 0.00 0.00 0.00 95 1011.0
20260906065956 75 148 0.0 0.0 0.00 0.00 0.00 95 1010.9
20260906065455 75 148 0.0 0.0 0.00 0.00 0.00 95 1011.1
20260906064951 75 148 0.0 0.0 0.00 0.00 0.00 95 1010.9
20260906064448 75 148 0.0 0.0 0.00 0.00 0.00 95 1011.0
20260906063947 76 148 0.0 0.0 0.00 0.00 0.00 95 1010.9
20260906063443 76 148 0.0 0.0 0.00 0.00 0.00 95 1011.0
20260906062943 76 148 0.0 0.0 0.00 0.00 0.00 95 1011.0
20260906062438 76 148 0.0 0.0 0.00 0.00 0.00 95 1011.1
20260906061933 76 148 0.0 0.0 0.00 0.00 0.00 95 1011.0
20260906061429 76 148 0.0 0.0 0.00 0.00 0.00 94 1011.1
20260906060923 76 148 0.0 0.0 0.00 0.00 0.00 94 1011.2
20260906060421 76 148 0.0 0.0 0.00 0.00 0.00 94 1011.0
20260906055917 76 148 0.0 0.0 0.00 0.00 0.00 94 1011.0
20260906055413 76 148 0.0 0.0 0.00 0.00 0.00 94 1011.2
20260906054908 76 148 0.0 0.0 0.00 0.00 0.00 94 1011.0
20260906054402 76 148 0.0 0.0 0.00 0.00 0.00 93 1011.0
20260906053858 76 148 0.0 0.0 0.00 0.00 0.00 93 1011.1
20260906053354 77 148 0.0 0.0 0.00 0.00 0.00 93 1011.0
20260906052850 77 148 0.0 0.0 0.00 0.00 0.00 92 1011.2
20260906052346 77 148 0.0 0.0 0.00 0.00 0.00 92 1011.0
20260906051843 77 148 0.0 0.0 0.00 0.00 0.00 92 1011.1
20260906051342 77 148 0.0 0.0 0.00 0.00 0.00 92 1010.9
20260906050838 77 148 0.0 0.0 0.00 0.00 0.00 92 1011.1
20260906050333 77 148 0.0 0.0 0.00 0.00 0.00 91 1010.9
20260906045831 77 148 0.0 0.0 0.00 0.00 0.00 91 1010.9
20260906045326 77 148 0.0 0.0 0.00 0.00 0.00 90 1010.9
20260906044823 77 148 0.0 0.0 0.00 0.00 0.00 90 1011.0
20260906044323 77 148 0.0 0.0 0.00 0.00 0.00 90 1010.8
20260906043819 77 148 0.0 0.0 0.00 0.00 0.00 90 1010.8
20260906043315 78 148 0.0 0.0 0.00 0.00 0.00 90 1010.7
20260906042814 78 148 0.0 0.0 0.00 0.00 0.00 90 1010.7
20260906042313 78 148 0.0 0.0 0.00 0.00 0.00 89 1010.4
20260906041809 78 148 0.0 0.0 0.00 0.00 0.00 89 1010.4
20260906041304 78 148 0.0 0.0 0.00 0.00 0.00 89 1010.4
20260906040759 78 148 0.0 0.0 0.00 0.00 0.00 89 1010.3
20260906040254 78 148 0.0 0.0 0.00 0.00 0.00 88 1010.7
20260906035749 78 148 0.0 0.0 0.00 0.00 0.00 87 1010.8
20260906035246 78 148 0.0 0.0 0.00 0.00 0.00 87 1010.6
20260906034745 79 148 0.0 0.0 0.00 0.00 0.00 87 1011.0
20260906034240 79 148 0.0 0.0 0.00 0.00 0.00 86 1010.8
20260906033736 79 148 0.0 0.0 0.00 0.00 0.00 86 1010.9
20260906033235 79 148 0.0 0.0 0.00 0.00 0.00 87 1011.0
20260906032732 79 148 0.0 0.0 0.00 0.00 0.00 86 1010.7
20260906032227 79 148 0.0 0.0 0.00 0.00 0.00 86 1011.1
20260906031722 80 148 0.0 0.0 0.00 0.00 0.00 86 1011.0
20260906031218 80 148 0.0 0.0 0.00 0.00 0.00 84 1011.0
20260906030717 80 148 0.0 0.0 0.00 0.00 0.00 83 1011.0
20260906030212 80 147 0.0 0.0 0.00 0.00 0.00 82 1011.3
20260906025711 80 147 0.0 0.0 0.00 0.00 0.00 82 1011.3
20260906025206 80 147 0.0 0.0 0.00 0.00 0.00 82 1011.1
20260906024705 81 147 0.0 0.0 0.00 0.00 0.00 82 1011.5
20260906024204 81 147 0.0 0.0 0.00 0.00 0.00 82 1010.8
20260906023701 81 147 0.0 0.0 0.00 0.00 0.00 82 1010.8
20260906023200 81 147 0.0 0.0 0.00 0.00 0.00 82 1011.0
20260906022655 82 147 0.0 1.0 0.00 0.00 0.00 81 1011.1
20260906022151 82 147 1.0 1.0 0.00 0.00 0.00 80 1010.7
20260906021647 82 148 0.0 0.0 0.00 0.00 0.00 80 1010.7
20260906021146 82 147 0.0 0.0 0.00 0.00 0.00 79 1010.7
20260906020641 82 146 1.0 1.0 0.00 0.00 0.00 80 1010.6
20260906020136 82 163 0.0 0.0 0.00 0.00 0.00 80 1010.3
20260906015630 82 174 0.0 1.0 0.00 0.00 0.00 78 1010.2
20260906015129 83 147 0.0 0.0 0.00 0.00 0.00 78 1010.2
20260906014628 83 146 0.0 0.0 0.00 0.00 0.00 76 1010.0
20260906014125 84 146 0.0 0.0 0.00 0.00 0.00 75 1010.1
20260906013620 85 146 0.0 0.0 0.00 0.00 0.00 73 1010.2
20260906013115 85 146 0.0 0.0 0.00 0.00 0.00 71 1010.1
20260906012610 85 146 0.0 0.0 0.00 0.00 0.00 70 1010.1
20260906012110 86 146 0.0 0.0 0.00 0.00 0.00 70 1010.1
20260906011607 86 148 0.0 0.0 0.00 0.00 0.00 69 1009.9
20260906011106 87 148 0.0 0.0 0.00 0.00 0.00 68 1009.9
20260906010602 88 148 0.0 0.0 0.00 0.00 0.00 67 1009.6
20260906010058 88 145 0.0 0.0 0.00 0.00 0.00 65 1009.7
20260906005552 88 140 0.0 0.0 0.00 0.00 0.00 63 1009.7
20260906005051 89 149 0.0 0.0 0.00 0.00 0.00 63 1009.6
20260906004550 89 148 0.0 0.0 0.00 0.00 0.00 62 1009.9
20260906004045 89 154 0.0 0.0 0.00 0.00 0.00 62 1009.6
20260906003540 90 148 0.0 0.0 0.00 0.00 0.00 61 1009.7
20260906003037 90 153 0.0 0.0 0.00 0.00 0.00 61 1009.7
20260906002536 89 86 2.0 4.0 0.00 0.00 0.00 64 1009.7
20260906002031 90 144 0.0 0.0 0.00 0.00 0.00 70 1009.6
20260906001527 91 156 0.0 0.0 0.00 0.00 0.00 67 1009.6
20260906001027 92 156 0.0 0.0 0.00 0.00 0.00 65 1009.4
20260906000523 93 156 0.0 0.0 0.00 0.00 0.00 61 1009.4
20260906000018 94 164 0.0 0.0 0.00 0.00 0.00 60 1009.6
20260905235517 94 164 0.0 0.0 0.00 0.00 0.00 59 1009.4
20260905235013 95 164 0.0 0.0 0.00 0.00 0.00 57 1009.5
20260905234509 97 164 0.0 0.0 0.00 0.00 0.00 54 1009.6
20260905234008 98 164 0.0 0.0 0.00 0.00 0.00 51 1009.5
20260905233503 98 164 0.0 0.0 0.00 0.00 0.00 51 1009.4
20260905233002 98 164 0.0 0.0 0.00 0.00 0.00 52 1009.6
20260905232458 98 179 0.0 0.0 0.00 0.00 0.00 47 1009.3
20260905231954 98 149 0.0 0.0 0.00 0.00 0.00 48 1009.3
20260905231449 98 155 0.0 0.0 0.00 0.00 0.00 46 1009.2
20260905230946 99 156 0.0 0.0 0.00 0.00 0.00 45 1009.4
20260905230444 99 156 0.0 0.0 0.00 0.00 0.00 45 1009.3
20260905225943 99 157 0.0 0.0 0.00 0.00 0.00 45 1009.3
20260905225438 99 145 0.0 0.0 0.00 0.00 0.00 44 1009.3
20260905224933 99 157 0.0 0.0 0.00 0.00 0.00 45 1009.2
20260905224429 99 148 1.0 1.0 0.00 0.00 0.00 43 1009.6
20260905223928 99 148 0.0 0.0 0.00 0.00 0.00 44 1009.2
20260905223426 100 145 0.0 0.0 0.00 0.00 0.00 45 1009.2
20260905222926 100 160 0.0 1.0 0.00 0.00 0.00 45 1009.5
20260905222425 99 159 0.0 0.0 0.00 0.00 0.00 44 1009.4
20260905221921 99 214 2.0 3.0 0.00 0.00 0.00 45 1009.4
20260905221418 99 166 0.0 0.0 0.00 0.00 0.00 46 1009.5
20260905220914 99 120 0.0 0.0 0.00 0.00 0.00 45 1009.6
20260905220410 99 107 2.0 3.0 0.00 0.00 0.00 44 1009.6
20260905215908 100 139 0.0 0.0 0.00 0.00 0.00 43 1009.6
20260905215404 100 124 1.0 1.0 0.00 0.00 0.00 43 1009.6
20260905214900 100 172 3.0 4.0 0.00 0.00 0.00 42 1009.6
20260905214356 100 148 1.0 1.0 0.00 0.00 0.00 43 1009.7
20260905213850 100 293 3.0 4.0 0.00 0.00 0.00 44 1009.4
20260905213347 100 161 1.0 1.0 0.00 0.00 0.00 45 1009.4
20260905212842 99 154 1.0 1.0 0.00 0.00 0.00 45 1009.5
20260905212341 101 175 1.0 1.0 0.00 0.00 0.00 44 1009.4
20260905211835 101 141 0.0 0.0 0.00 0.00 0.00 39 1009.6
20260905211331 101 163 0.0 0.0 0.00 0.00 0.00 38 1009.6
20260905210828 100 168 4.0 4.0 0.00 0.00 0.00 42 1009.6
20260905210327 100 108 3.0 5.0 0.00 0.00 0.00 39 1009.5
20260905205826 101 134 2.0 4.0 0.00 0.00 0.00 40 1009.8
20260905205321 101 135 1.0 1.0 0.00 0.00 0.00 40 1009.7
20260905204820 101 110 2.0 3.0 0.00 0.00 0.00 39 1009.9
20260905204317 100 160 0.0 0.0 0.00 0.00 0.00 39 1010.0
20260905203815 101 159 0.0 0.0 0.00 0.00 0.00 40 1010.2
20260905203311 102 67 3.0 3.0 0.00 0.00 0.00 37 1010.6
20260905202806 101 165 1.0 1.0 0.00 0.00 0.00 39 1010.3
20260905202301 101 158 0.0 0.0 0.00 0.00 0.00 41 1010.6
20260905201757 101 159 2.0 3.0 0.00 0.00 0.00 42 1010.6
20260905201253 101 167 0.0 1.0 0.00 0.00 0.00 41 1010.8
20260905200753 101 74 2.0 4.0 0.00 0.00 0.00 41 1011.1
20260905200249 100 160 0.0 0.0 0.00 0.00 0.00 40 1010.9
20260905195746 100 227 4.0 5.0 0.00 0.00 0.00 39 1010.9
20260905195242 100 176 2.0 3.0 0.00 0.00 0.00 40 1011.0
20260905194737 100 157 0.0 1.0 0.00 0.00 0.00 41 1011.1
20260905194236 99 161 0.0 1.0 0.00 0.00 0.00 42 1011.1
20260905193736 99 37 2.0 3.0 0.00 0.00 0.00 41 1011.3
20260905193231 99 164 0.0 0.0 0.00 0.00 0.00 42 1011.3
20260905192727 100 133 2.0 3.0 0.00 0.00 0.00 41 1011.5
20260905192223 99 179 0.0 0.0 0.00 0.00 0.00 42 1011.3
20260905191722 98 108 3.0 4.0 0.00 0.00 0.00 42 1011.8
20260905191220 100 161 0.0 1.0 0.00 0.00 0.00 45 1011.9
20260905190719 99 216 2.0 3.0 0.00 0.00 0.00 42 1011.8
20260905190218 99 103 2.0 3.0 0.00 0.00 0.00 43 1011.8
20260905185718 100 111 1.0 1.0 0.00 0.00 0.00 42 1011.7
20260905185212 99 216 0.0 1.0 0.00 0.00 0.00 43 1012.1
20260905184707 99 302 4.0 4.0 0.00 0.00 0.00 40 1012.0
20260905184206 99 41 2.0 3.0 0.00 0.00 0.00 46 1012.3
20260905183706 100 154 0.0 1.0 0.00 0.00 0.00 42 1012.0
20260905183201 100 168 1.0 3.0 0.00 0.00 0.00 42 1012.1
20260905182700 99 162 0.0 0.0 0.00 0.00 0.00 45 1012.3
20260905182200 98 158 0.0 0.0 0.00 0.00 0.00 45 1012.5
20260905181656 98 146 1.0 1.0 0.00 0.00 0.00 45 1012.4
20260905181154 98 156 2.0 3.0 0.00 0.00 0.00 48 1012.5
20260905180649 97 236 2.0 3.0 0.00 0.00 0.00 43 1012.4
20260905180145 97 85 3.0 3.0 0.00 0.00 0.00 45 1012.5
20260905175643 97 122 0.0 1.0 0.00 0.00 0.00 47 1012.6
20260905175139 98 135 1.0 1.0 0.00 0.00 0.00 44 1012.5
20260905174635 99 184 2.0 3.0 0.00 0.00 0.00 46 1012.6
20260905174130 98 169 0.0 1.0 0.00 0.00 0.00 47 1012.7
20260905173626 97 186 1.0 3.0 0.00 0.00 0.00 49 1012.8
20260905173122 98 147 2.0 3.0 0.00 0.00 0.00 48 1012.9
20260905172620 97 149 0.0 0.0 0.00 0.00 0.00 47 1012.7
20260905172115 97 162 1.0 1.0 0.00 0.00 0.00 49 1013.1
20260905171612 97 217 3.0 4.0 0.00 0.00 0.00 49 1012.9
20260905171108 97 165 0.0 1.0 0.00 0.00 0.00 48 1013.1
20260905170604 97 46 2.0 4.0 0.00 0.00 0.00 47 1012.9
20260905170100 96 133 2.0 3.0 0.00 0.00 0.00 47 1013.3
20260905165559 97 302 4.0 5.0 0.00 0.00 0.00 48 1013.0
20260905165054 98 182 1.0 1.0 0.00 0.00 0.00 47 1013.3
20260905164549 96 148 1.0 1.0 0.00 0.00 0.00 49 1013.3
20260905164044 96 124 1.0 1.0 0.00 0.00 0.00 52 1013.2
20260905163540 95 179 0.0 0.0 0.00 0.00 0.00 55 1013.2
20260905163036 95 190 0.0 0.0 0.00 0.00 0.00 52 1013.4
20260905162532 95 91 4.0 4.0 0.00 0.00 0.00 52 1013.6
20260905162026 95 138 1.0 1.0 0.00 0.00 0.00 52 1013.2
20260905161526 95 125 2.0 3.0 0.00 0.00 0.00 53 1013.5
20260905161024 95 154 1.0 1.0 0.00 0.00 0.00 54 1013.6
20260905160523 94 161 0.0 0.0 0.00 0.00 0.00 55 1013.5
20260905160017 94 149 1.0 3.0 0.00 0.00 0.00 60 1013.4
20260905155517 93 134 1.0 3.0 0.00 0.00 0.00 57 1013.5
20260905155015 93 333 3.0 4.0 0.00 0.00 0.00 59 1013.7
20260905154511 93 112 2.0 3.0 0.00 0.00 0.00 60 1013.9
20260905154007 93 140 2.0 3.0 0.00 0.00 0.00 60 1013.7
20260905153503 92 162 0.0 0.0 0.00 0.00 0.00 61 1013.7